Weather History for Andrews, NC

Change the Weather History Date:

Saturday, June 15, 2013

  Actual Average (KTYS) Record (KTYS)
Temperature  
Mean Temperature 67 °F 75 °F  
Max Temperature 82 °F 86 °F 95 °F (1943)
Min Temperature 52 °F 65 °F 50 °F (1917)
Degree Days  
Heating Degree Days 0 0  
Month to date heating degree days 0  
Since 1 June heating degree days 0  
Since 1 July heating degree days 3633  
Cooling Degree Days 2 10  
Month to date cooling degree days 129  
Year to date cooling degree days 291  
Since 1 June cooling degree days 129  
Growing Degree Days 17 (Base 50)    
Moisture  
Dew Point 57 °F    
Average Humidity 71    
Maximum Humidity 99    
Minimum Humidity 41    
Precipitation  
Precipitation 0.00 in 0.13 in 1.35 in (2004)
Month to date precipitation 1.85  
Year to date precipitation 23.29  
Snow  
Snow 0.00 in 0.00 in - ()
Month to date snowfall 0.0  
Since 1 June snowfall 0.0  
Since 1 July snowfall 6.5  
Snow Depth -    
Sea Level Pressure  
Sea Level Pressure 30.14 in    
Wind  
Wind Speed 1 mph (West)    
Max Wind Speed 9 mph    
Max Gust Speed -    
Visibility 10 miles    
Events      
T = Trace of Precipitation, MM = Missing Value Source: NWS Daily Summary

Daily Weather History Graph

Daily Weather History Graph

Search for Another Location

Airport:

Trip Planner

Search our weather history database for the weather conditions in past years. The results will help you decide how hot, cold, wet, or windy it might be!

Date:

Astronomy

Jun. 15, 2013 Rise Set
Actual Time 6:20 AM EDT 8:51 PM EDT
Civil Twilight 5:50 AM EDT 9:21 PM EDT
Nautical Twilight 5:13 AM EDT 9:58 PM EDT
Astronomical Twilight 4:33 AM EDT 10:39 PM EDT
Moon 12:41 PM EDT (6/15) 12:38 AM EDT (6/15)
Length of Visible Light 15h 30m
Length of Day
14h 31m
Waxing Crescent, 39% of the Moon is Illuminated
Jun 15
Waxing Crescent
Jun 16
First Quarter
Jun 23
Full
Jun 30
Last Quarter
Jul 8
New

Hourly Weather History & Observations

Time (EDT) Temp. Heat Index Dew Point Humidity Pressure Visibility Wind Dir Wind Speed Gust Speed Precip Events Conditions
12:15 AM 60.6 °F - 57.0 °F 88% 30.09 in 10.0 mi Calm Calm - N/A   Unknown
12:35 AM 60.3 °F - 55.9 °F 86% 30.10 in 10.0 mi Calm Calm - N/A   Unknown
12:55 AM 58.3 °F - 55.6 °F 91% 30.10 in 10.0 mi Calm Calm - N/A   Unknown
1:15 AM 58.3 °F - 55.4 °F 90% 30.11 in 10.0 mi Calm Calm - N/A   Unknown
1:35 AM 57.0 °F - 54.9 °F 92% 30.11 in 10.0 mi Calm Calm - N/A   Unknown
1:55 AM 56.3 °F - 54.5 °F 94% 30.11 in 10.0 mi Calm Calm - N/A   Unknown
2:15 AM 56.7 °F - 54.3 °F 92% 30.12 in 10.0 mi Calm Calm - N/A   Unknown
2:35 AM 55.6 °F - 54.1 °F 95% 30.12 in 10.0 mi Calm Calm - N/A   Unknown
2:55 AM 56.1 °F - 54.5 °F 94% 30.11 in 10.0 mi Calm Calm - N/A   Unknown
3:15 AM 55.0 °F - 53.8 °F 96% 30.11 in 10.0 mi Calm Calm - N/A   Unknown
3:35 AM 54.9 °F - 53.8 °F 96% 30.10 in 10.0 mi Calm Calm - N/A   Unknown
3:55 AM 54.5 °F - 53.4 °F 96% 30.10 in 10.0 mi Calm Calm - N/A   Unknown
4:15 AM 53.8 °F - 53.4 °F 99% 30.10 in 7.0 mi Calm Calm - N/A   Unknown
4:35 AM 53.6 °F - 52.7 °F 97% 30.11 in 10.0 mi Calm Calm - N/A   Unknown
4:55 AM 53.4 °F - 52.3 °F 96% 30.11 in 10.0 mi Calm Calm - N/A   Unknown
5:15 AM 53.1 °F - 52.2 °F 97% 30.12 in 10.0 mi Calm Calm - N/A   Unknown
5:35 AM 53.2 °F - 51.8 °F 95% 30.14 in 10.0 mi Calm Calm - N/A   Unknown
5:55 AM 52.5 °F - 51.4 °F 96% 30.15 in 10.0 mi Calm Calm - N/A   Unknown
6:15 AM 53.2 °F - 51.8 °F 95% 30.16 in 10.0 mi Calm Calm - N/A   Unknown
6:35 AM 53.2 °F - 52.0 °F 95% 30.17 in 10.0 mi Calm Calm - N/A   Unknown
6:55 AM 53.6 °F - 51.8 °F 94% 30.16 in 10.0 mi Calm Calm - N/A   Unknown
7:15 AM 53.8 °F - 52.7 °F 96% 30.17 in 10.0 mi Calm Calm - N/A   Unknown
7:35 AM 55.2 °F - 52.9 °F 92% 30.17 in 10.0 mi Calm Calm - N/A   Unknown
7:55 AM 56.8 °F - 53.8 °F 89% 30.17 in 10.0 mi Calm Calm - N/A   Unknown
8:15 AM 59.5 °F - 55.4 °F 86% 30.18 in 10.0 mi Calm Calm - N/A   Unknown
8:35 AM 61.2 °F - 55.8 °F 82% 30.19 in 10.0 mi Calm Calm - N/A   Unknown
8:55 AM 63.1 °F - 56.1 °F 78% 30.18 in 10.0 mi Calm Calm - N/A   Unknown
9:15 AM 66.2 °F - 56.7 °F 71% 30.18 in 10.0 mi Calm Calm - N/A   Unknown
9:35 AM 67.8 °F - 56.7 °F 67% 30.19 in 10.0 mi Calm Calm - N/A   Unknown
9:55 AM 69.4 °F - 57.2 °F 65% 30.18 in 10.0 mi Calm Calm - N/A   Unknown
10:15 AM 71.2 °F - 56.7 °F 60% 30.18 in 10.0 mi Calm Calm - N/A   Unknown
10:35 AM 73.0 °F - 57.6 °F 58% 30.17 in 10.0 mi Calm Calm - N/A   Unknown
10:55 AM 74.7 °F - 57.0 °F 54% 30.17 in 10.0 mi Calm Calm - N/A   Unknown
11:15 AM 75.4 °F - 56.7 °F 52% 30.17 in 10.0 mi West 3.5 mph - N/A   Unknown
11:35 AM 75.6 °F - 56.1 °F 51% 30.17 in 10.0 mi Calm Calm - N/A   Unknown
11:55 AM 77.2 °F - 57.4 °F 50% 30.17 in 10.0 mi WSW 3.5 mph - N/A   Unknown
12:15 PM 77.9 °F - 57.7 °F 50% 30.17 in 10.0 mi Calm Calm - N/A   Unknown
12:35 PM 79.5 °F - 55.2 °F 43% 30.17 in 10.0 mi West 6.9 mph - N/A   Unknown
12:55 PM 79.0 °F - 56.3 °F 46% 30.17 in 10.0 mi SSW 6.9 mph - N/A   Unknown
1:15 PM 79.7 °F - 57.6 °F 47% 30.16 in 10.0 mi WSW 3.5 mph - N/A   Unknown
1:35 PM 79.9 °F - 57.7 °F 47% 30.16 in 10.0 mi Calm Calm - N/A   Unknown
1:55 PM 80.4 °F 80.9 °F 58.6 °F 47% 30.15 in 10.0 mi WSW 4.6 mph - N/A   Unknown
2:15 PM 80.4 °F 80.9 °F 58.5 °F 47% 30.14 in 10.0 mi WSW 6.9 mph - N/A   Unknown
2:35 PM 81.1 °F 81.4 °F 58.3 °F 46% 30.14 in 10.0 mi Calm Calm - N/A   Unknown
2:55 PM 81.3 °F 81.3 °F 57.2 °F 44% 30.14 in 10.0 mi Calm Calm - N/A   Unknown
3:15 PM 82.0 °F 81.6 °F 56.3 °F 41% 30.14 in 10.0 mi WSW 6.9 mph - N/A   Unknown
3:35 PM 82.2 °F 81.9 °F 57.2 °F 42% 30.13 in 10.0 mi WSW 4.6 mph - N/A   Unknown
3:55 PM 82.2 °F 81.8 °F 56.7 °F 41% 30.13 in 10.0 mi WNW 6.9 mph - N/A   Unknown
4:15 PM 81.5 °F 81.3 °F 56.3 °F 42% 30.12 in 10.0 mi West 3.5 mph - N/A   Unknown
4:35 PM 81.0 °F 81.1 °F 57.7 °F 45% 30.12 in 10.0 mi Calm Calm - N/A   Unknown
4:55 PM 81.7 °F 81.5 °F 57.4 °F 43% 30.12 in 10.0 mi Calm Calm - N/A   Unknown
5:15 PM 82.4 °F 81.9 °F 56.5 °F 41% 30.11 in 10.0 mi Calm Calm - N/A   Unknown
5:35 PM 82.6 °F 82.5 °F 58.8 °F 44% 30.10 in 10.0 mi WSW 5.8 mph - N/A   Unknown
5:55 PM 82.6 °F 82.5 °F 58.6 °F 44% 30.10 in 10.0 mi West 9.2 mph - N/A   Unknown
6:15 PM 82.0 °F 82.2 °F 59.2 °F 46% 30.09 in 10.0 mi WSW 5.8 mph - N/A   Unknown
6:35 PM 81.7 °F 81.9 °F 59.2 °F 46% 30.09 in 10.0 mi WSW 9.2 mph - N/A   Unknown
6:55 PM 81.3 °F 81.8 °F 60.1 °F 48% 30.10 in 10.0 mi West 8.1 mph - N/A   Unknown
7:15 PM 79.9 °F - 61.2 °F 53% 30.10 in 10.0 mi WNW 5.8 mph - N/A   Unknown
7:35 PM 78.8 °F - 60.6 °F 54% 30.11 in 10.0 mi Calm Calm - N/A   Unknown
7:55 PM 76.3 °F - 63.3 °F 64% 30.11 in 10.0 mi Calm Calm - N/A   Unknown
8:15 PM 74.3 °F - 63.5 °F 69% 30.10 in 10.0 mi Calm Calm - N/A   Unknown
8:35 PM 72.5 °F - 62.8 °F 71% 30.10 in 10.0 mi NNW 5.8 mph - N/A   Unknown
8:55 PM 71.4 °F - 63.1 °F 75% 30.11 in 10.0 mi NW 3.5 mph - N/A   Unknown
9:15 PM 70.7 °F - 62.8 °F 76% 30.11 in 10.0 mi Calm Calm - N/A   Unknown
9:35 PM 69.8 °F - 63.5 °F 80% 30.12 in 10.0 mi NNW 3.5 mph - N/A   Unknown
9:55 PM 69.4 °F - 64.2 °F 83% 30.14 in 10.0 mi Calm Calm - N/A   Unknown
10:15 PM 69.6 °F - 63.5 °F 81% 30.15 in 10.0 mi Calm Calm - N/A   Unknown
10:35 PM 68.7 °F - 63.9 °F 84% 30.16 in 10.0 mi Calm Calm - N/A   Unknown
10:55 PM 67.1 °F - 62.6 °F 85% 30.15 in 10.0 mi NNW 3.5 mph - N/A   Unknown
11:15 PM 66.2 °F - 62.6 °F 88% 30.16 in 10.0 mi Calm Calm - N/A   Unknown
11:35 PM 65.5 °F - 61.9 °F 88% 30.16 in 10.0 mi Calm Calm - N/A   Unknown
11:55 PM 64.2 °F - 61.7 °F 91% 30.17 in 10.0 mi Calm Calm - N/A   Unknown